Lapse_Rate
-1.9 -2.2 -2.6 -3.0 -3.4 -3.6 -4.1 -4.5 -4.7 -4.9 -4.9 -5.1 -5.3 -5.5 -5.7 -5.9 -5.4 -1.1 4.0 6.1 4.2 2.0 2.0 8.0 6.7 5.2 6.8 6.1 6.0 6.3 6.5 6.5 6.5 6.5 6.5 6.2 6.5 7.4 7.4 7.1 7.6 7.7 7.4 7.0 7.5
-2.3 -2.4 -2.8 -3.1 -3.6 -3.8 -4.2 -4.5 -4.8 -5.0 -5.2 -5.3 -5.5 -5.6 -5.6 -5.9 -0.6 3.8 5.1 2.7 1.8 1.5 8.1 5.9 3.4 3.4 4.1 6.9 7.0 6.1 6.5 6.5 6.5 6.5 6.5 6.6 6.5 6.5 6.7 6.7 7.0 7.2 7.6 7.9 7.9
-2.7 -2.7 -2.9 -3.4 -3.6 -4.1 -4.4 -4.7 -5.0 -5.2 -5.3 -5.5 -5.6 -5.7 -5.7 -5.7 2.3 6.1 0.6 1.0 1.1 2.7 6.9 5.6 5.9 6.6 4.5 7.2 6.9 6.2 6.5 6.5 6.3 5.8 6.4 6.0 6.4 6.4 6.4 6.5 6.7 6.7 7.2 7.6 7.4
-3.3 -3.5 -3.7 -3.9 -4.1 -4.3 -4.7 -4.8 -5.2 -5.5 -5.6 -5.7 -5.7 -5.6 -5.6 -1.2 6.5 5.7 0.2 0.7 1.2 5.6 7.0 4.1 3.4 3.2 6.6 6.5 6.9 6.5 6.3 6.1 5.8 6.0 6.3 6.4 5.4 6.5 6.1 6.6 7.4 7.4 7.5 7.5 7.2
-3.6 -3.8 -4.2 -4.3 -4.5 -4.8 -5.1 -5.2 -5.4 -5.7 -5.7 -5.8 -5.8 -5.7 -2.9 4.0 5.1 2.2 0.7 1.0 4.2 5.5 7.5 4.5 3.6 4.4 6.5 6.4 6.7 6.5 6.5 5.9 5.5 5.9 5.2 6.3 6.3 6.5 6.4 7.4 7.5 7.6 7.6 7.0 6.5
-3.8 -4.0 -4.4 -4.9 -5.0 -5.4 -5.5 -5.5 -5.6 -5.8 -5.7 -5.7 -5.7 -5.9 0.1 6.4 6.6 3.1 4.3 3.7 6.1 5.7 6.6 3.0 3.0 2.1 6.0 5.9 6.5 6.7 6.4 6.1 6.1 6.4 6.3 6.3 6.0 5.7 6.5 7.1 7.3 7.3 6.7 6.5 6.3
-4.1 -4.4 -4.6 -5.2 -5.4 -5.8 -6.0 -6.0 -5.9 -5.8 -5.7 -5.5 -5.3 -1.4 3.8 4.3 7.8 4.9 5.5 5.4 6.1 6.2 7.3 6.6 6.4 3.7 6.4 6.5 7.2 6.9 6.5 6.5 6.1 6.1 6.5 5.5 6.5 6.5 6.1 6.8 6.7 6.6 6.6 6.8 6.2
-4.3 -4.8 -4.9 -5.3 -6.0 -6.1 -6.5 -6.6 -6.3 -5.7 -5.4 -5.1 -4.9 -0.0 2.6 6.7 6.8 7.4 6.4 7.6 7.7 7.6 7.6 7.2 7.5 5.1 6.0 5.2 6.5 6.5 6.5 6.5 6.5 6.5 6.4 5.8 6.5 6.6 5.3 6.1 6.2 6.5 6.9 6.8 6.1
-4.5 -5.0 -5.2 -5.6 -6.2 -6.6 -7.0 -6.9 -6.0 -5.2 -4.8 -4.1 -2.7 1.2 5.6 6.4 7.3 7.1 7.6 7.7 7.5 7.2 6.9 8.8 5.4 5.8 6.0 6.5 6.5 6.5 6.5 6.5 6.5 6.4 6.5 6.5 6.5 6.4 5.1 5.3 6.1 6.2 6.2 6.1 5.4
-4.7 -5.3 -5.6 -5.8 -6.3 -6.7 -6.9 -6.8 -4.3 -4.4 -3.1 0.6 4.1 5.9 3.8 7.2 7.3 7.4 7.4 8.2 7.5 6.9 6.7 6.4 5.1 6.5 6.5 6.5 6.5 6.5 6.5 6.5 6.5 6.5 6.5 6.5 6.5 6.5 5.8 5.0 5.2 5.1 5.1 5.1 5.2
-4.9 -5.6 -6.0 -6.0 -6.5 -6.9 -5.1 0.6 3.6 3.2 4.3 4.2 4.6 5.4 7.1 6.6 8.0 8.1 7.5 7.7 7.4 6.3 6.5 5.3 6.5 6.5 6.5 6.5 6.5 6.5 6.5 6.5 6.5 6.5 6.5 6.5 6.5 6.5 6.2 6.1 6.0 4.8 4.4 4.5 4.9
-5.1 -5.6 -6.1 -6.3 -6.7 -7.2 -6.9 3.5 5.8 7.2 5.4 3.8 4.7 6.9 7.1 7.8 7.1 7.4 7.6 6.3 6.1 6.5 6.3 6.5 6.5 6.5 6.5 6.5 6.5 6.5 6.5 6.5 6.5 6.5 6.5 6.5 6.5 6.5 6.3 6.3 6.2 6.1 5.4 5.4 4.8
-5.3 -5.8 -6.4 -6.8 -7.4 -6.7 0.5 3.6 5.6 5.8 5.6 6.5 5.6 6.6 6.5 7.8 6.4 6.1 6.1 6.2 6.3 6.5 6.5 6.5 6.5 6.5 6.5 6.5 6.5 6.5 6.5 6.5 6.5 6.5 6.5 6.5 6.5 6.5 6.3 4.4 6.3 6.3 6.0 6.0 5.7
-5.4 -6.1 -6.7 -7.6 -4.2 2.9 3.9 3.7 3.8 4.9 6.5 6.5 6.3 6.5 6.8 6.7 6.0 7.6 6.6 6.4 6.5 6.5 6.5 6.5 6.5 6.5 6.5 6.5 6.5 6.5 6.5 6.5 6.5 6.5 6.5 6.5 6.5 6.5 6.5 6.5 6.5 6.0 6.1 5.9 6.0
-5.7 -6.4 -7.1 -7.6 -6.7 2.7 7.3 7.0 7.6 6.0 6.5 6.5 6.3 7.5 6.6 5.6 6.1 6.4 6.8 6.2 6.5 6.5 6.5 6.5 6.5 6.5 6.5 6.5 6.5 6.5 6.5 6.5 6.5 6.5 6.5 6.5 6.5 6.5 6.5 6.5 6.5 5.7 6.3 6.2 6.0
-5.9 -6.9 -7.6 -4.5 -5.4 -0.9 3.1 4.4 6.6 6.5 6.5 6.5 6.3 6.4 6.4 5.7 6.3 6.2 6.9 7.3 6.2 6.5 6.5 6.5 5.4 6.5 6.5 6.5 6.5 6.5 6.5 6.5 6.5 6.5 6.5 6.5 6.5 6.5 6.5 6.5 6.5 5.6 6.4 6.5 6.2
-6.3 -7.3 -8.1 -3.7 3.4 4.2 6.4 5.9 6.5 6.5 6.5 6.5 6.5 6.5 6.5 6.5 6.5 6.5 6.5 6.5 6.5 6.5 6.5 6.5 6.5 6.5 6.3 6.5 6.5 6.5 6.5 6.5 6.5 6.5 6.5 6.5 6.5 6.5 6.5 6.5 6.5 6.5 5.6 5.4 6.5
-6.9 -8.1 -5.9 -2.9 2.4 3.3 5.4 6.3 6.5 6.5 6.5 6.5 6.5 6.5 6.5 6.5 6.5 6.5 6.5 6.5 6.5 6.5 6.5 6.5 6.5 6.5 6.5 6.5 6.5 6.5 6.5 6.5 6.5 6.5 6.5 6.5 6.5 6.5 6.5 6.3 6.1 4.2 4.7 5.3 6.3
-7.7 -1.4 0.8 0.7 -0.7 2.6 5.0 6.5 6.5 6.5 6.5 6.5 6.5 6.5 6.5 6.5 6.5 6.5 6.5 6.5 6.5 6.5 6.5 6.5 6.5 6.5 6.5 6.5 6.5 6.5 6.5 6.5 6.5 6.5 6.5 6.5 6.5 6.5 6.5 6.5 5.6 4.9 4.7 5.0 4.7
-3.2 4.2 5.2 6.6 5.5 5.1 6.1 6.5 6.5 6.5 6.5 6.5 6.5 6.5 6.5 6.5 6.5 6.5 6.5 6.5 6.5 6.5 5.9 6.5 6.5 6.5 6.5 6.2 6.4 6.5 6.5 6.5 6.5 6.5 6.5 6.5 6.5 6.5 6.5 6.5 6.5 6.4 4.8 3.8 4.3
-0.2 5.7 7.2 8.2 6.9 5.3 6.5 6.5 6.5 6.7 6.6 6.5 6.5 6.5 6.5 6.5 6.5 6.5 6.5 6.5 6.5 6.5 6.4 6.5 6.5 6.5 6.5 6.5 6.5 6.5 6.5 6.5 6.5 6.5 6.5 6.5 6.5 6.5 6.5 6.5 6.5 5.9 4.2 4.0 4.2
3.7 6.5 7.6 8.2 5.4 4.8 6.5 6.5 4.0 6.5 6.5 6.5 6.5 6.5 6.5 6.5 6.5 6.5 6.5 6.5 5.6 6.0 6.5 6.5 6.5 6.5 6.5 6.5 6.5 6.5 6.5 6.5 6.5 6.5 6.5 6.5 6.5 6.5 6.5 6.5 5.9 4.6 4.2 4.0 4.8
3.5 6.3 7.9 7.6 6.5 6.5 6.2 6.5 6.5 6.5 6.5 6.5 6.5 6.5 6.5 6.5 6.5 6.5 6.5 6.1 5.7 6.5 6.5 6.5 6.5 6.5 6.5 6.5 6.5 6.5 6.5 6.5 6.5 6.5 6.5 6.5 6.5 6.5 6.3 6.0 4.8 4.1 3.8 3.8 4.3
4.5 6.5 5.4 5.4 5.5 6.4 6.5 6.5 6.5 6.7 6.5 6.5 6.5 6.2 6.5 6.5 6.5 6.5 6.5 6.5 6.3 6.2 3.0 4.9 6.5 6.5 6.5 6.5 6.5 6.5 6.5 6.5 6.5 6.5 6.5 6.5 6.5 6.5 6.5 6.5 5.3 3.9 4.3 4.6 4.8
5.3 6.4 6.8 6.5 6.3 6.5 6.4 6.5 6.5 6.5 6.4 6.0 6.5 6.5 6.5 6.5 6.5 6.5 6.5 6.5 6.3 3.5 6.4 6.5 6.5 6.5 6.5 6.5 6.5 6.5 6.5 6.5 6.5 6.5 6.5 6.5 6.5 6.5 6.5 6.5 5.2 4.9 5.5 5.7 5.8
6.1 6.3 7.0 6.4 5.3 6.5 6.5 6.5 6.5 6.5 6.5 6.5 6.5 6.5 6.5 6.5 6.5 6.5 6.5 6.5 6.5 6.5 6.5 6.5 6.5 6.5 6.5 6.5 6.5 6.5 6.5 6.5 6.5 6.5 6.5 6.5 6.5 6.5 5.0 4.3 5.4 5.5 5.7 5.5 5.6
7.7 6.9 6.1 5.5 6.3 6.5 6.5 6.5 6.5 6.5 6.4 6.7 6.4 6.5 6.5 6.5 6.2 5.8 5.3 5.0 6.0 6.5 6.5 6.5 6.5 6.5 6.5 6.5 6.5 6.5 6.5 6.5 6.5 6.5 6.5 6.5 6.5 6.6 6.5 6.3 5.8 5.0 5.5 5.4 5.5
Wind_Speed
14 14 13 14 14 13 13 13 12 11 11 12 14 14 14 16 21 3 5 4 4 11 5 8 21 24 13 10 9 2 4 6 10 10 11 15 11 13 17 19 15 7 15 13 15
15 15 14 14 15 15 14 13 13 12 11 11 12 13 13 14 4 8 8 8 9 13 15 9 14 21 7 9 10 4 1 6 13 11 12 16 18 14 12 12 18 18 19 17 15
16 16 15 15 14 15 15 14 13 12 11 10 10 11 12 11 4 6 14 12 12 10 24 19 14 7 7 6 6 6 3 8 13 12 13 12 15 9 14 17 21 23 20 18 16
18 17 16 15 16 15 16 15 13 12 11 9 10 11 12 4 3 3 10 11 13 9 17 24 9 3 7 6 7 8 6 11 8 13 11 14 11 15 12 19 21 19 17 15 13
18 19 18 15 16 17 15 16 14 12 11 9 9 10 4 3 8 8 11 10 9 7 14 13 11 4 3 6 7 5 10 13 11 10 11 10 10 9 14 21 21 20 17 14 12
19 18 20 19 17 17 18 15 14 12 11 8 7 8 3 4 7 16 9 7 9 11 16 16 14 15 4 9 13 19 9 12 6 8 12 10 10 9 16 20 19 17 14 12 11
20 19 19 20 20 18 18 18 14 12 10 8 6 4 5 11 6 12 11 9 8 13 14 19 15 11 4 1 14 11 16 9 9 5 10 12 8 8 13 19 18 14 13 13 11
21 21 20 20 20 21 19 18 17 11 9 7 6 4 7 6 10 11 11 10 13 13 8 11 6 6 5 9 12 9 11 7 6 8 3 10 7 11 10 18 17 15 13 12 11
21 21 21 21 21 22 22 19 16 11 6 2 3 3 8 1 3 9 9 11 11 11 9 13 6 4 4 7 7 4 4 7 11 9 8 6 9 12 9 13 16 15 12 10 9
22 22 22 21 22 21 25 12 5 9 4 7 8 5 7 8 7 11 9 10 8 9 8 10 5 4 2 4 8 8 7 7 10 7 11 7 5 15 14 14 12 10 9 9 9
24 23 23 22 21 19 13 2 1 2 6 10 8 6 4 16 4 2 9 8 7 8 8 10 5 8 14 12 7 8 10 13 17 12 8 9 13 14 17 17 16 13 10 9 9
24 24 24 23 20 17 4 4 10 9 6 19 19 15 17 5 4 7 7 6 8 9 9 7 7 12 10 6 12 13 16 4 8 4 9 22 6 28 12 17 19 18 15 14 9
26 25 24 24 25 5 6 10 10 17 4 10 15 9 9 3 8 10 10 9 9 9 12 8 8 7 16 11 9 10 10 6 7 5 3 14 10 16 12 8 17 19 20 17 16
26 24 23 27 4 3 5 11 18 16 3 7 10 10 7 7 9 14 11 8 7 9 10 8 13 6 2 7 7 4 2 4 7 12 5 8 4 9 5 5 8 16 18 18 18
26 24 21 10 8 4 7 9 3 4 3 11 11 6 8 9 3 11 12 7 10 10 4 12 10 4 4 8 6 4 6 4 7 8 4 7 5 6 10 4 8 8 19 19 20
27 24 21 2 4 10 13 14 0 2 7 7 7 7 8 8 11 7 4 3 5 8 10 11 9 4 4 5 8 5 7 6 7 3 6 10 7 5 5 11 5 14 18 20 20
29 22 9 7 4 12 9 4 1 4 8 8 7 7 8 9 10 9 8 6 5 2 7 9 14 9 5 4 10 3 4 3 5 6 6 9 5 8 11 21 20 31 16 16 21
33 22 10 6 14 10 5 1 5 9 11 11 11 11 10 9 11 9 8 6 9 9 6 7 8 12 8 7 7 5 6 5 1 5 7 5 6 5 20 22 19 8 8 8 20
36 4 3 6 18 3 2 4 5 4 11 11 13 9 10 10 9 10 11 10 10 11 8 5 7 8 11 6 7 7 4 8 2 6 5 2 6 7 15 11 10 9 8 3 6
3 3 6 7 13 3 1 6 6 13 9 10 6 6 9 13 9 10 10 11 10 12 10 5 5 4 6 5 2 3 4 7 4 1 2 9 4 2 6 9 9 10 10 9 11
3 3 4 12 8 2 4 6 9 13 4 5 8 10 11 7 9 9 8 9 12 10 12 7 4 5 5 4 7 2 4 3 2 3 2 2 5 8 8 11 13 10 10 10 14
4 3 6 7 4 3 7 7 7 17 6 0 5 7 7 10 7 8 6 6 3 6 7 3 1 4 9 7 10 9 9 8 5 6 3 4 5 9 12 12 14 9 9 8 12
4 3 6 6 4 8 10 17 19 18 3 7 6 4 11 4 6 8 6 7 11 7 3 6 3 3 9 8 7 7 7 4 1 2 3 4 3 8 12 11 9 11 9 9 13
3 3 2 3 5 9 11 10 12 5 3 3 6 9 8 8 8 6 3 2 6 4 8 6 2 4 5 6 7 8 14 4 4 3 5 3 2 12 10 9 9 9 11 14 13
3 3 5 2 3 7 8 11 11 2 5 6 5 6 8 5 7 7 10 5 6 7 3 3 4 5 8 8 8 10 12 13 7 7 2 8 9 11 9 10 8 10 13 15 13
4 4 6 8 10 5 5 7 7 5 4 4 2 8 8 9 6 6 9 8 6 7 0 2 3 5 6 10 8 11 11 11 11 9 8 10 6 13 8 10 13 12 14 13 11
5 6 3 7 7 4 5 4 8 7 7 6 9 6 13 10 7 7 8 8 7 6 6 4 3 5 3 10 14 4 5 8 11 7 5 7 4 10 11 14 11 11 12 10 8
Wind_Direction
356 353 348 338 330 327 324 319 316 314 312 313 315 319 325 324 308 195 245 232 186 165 98 22 19 360 15 348 320 203 213 273 114 107 118 155 133 114 131 136 144 134 142 139 136
354 350 346 341 332 327 324 319 314 312 313 312 312 316 322 330 288 252 246 139 134 124 59 73 29 10 340 326 312 290 321 154 121 132 120 147 128 139 128 156 123 130 127 135 139
352 349 345 341 334 327 324 320 315 310 311 314 312 314 321 321 290 231 133 136 136 128 95 67 65 142 276 297 277 228 173 94 116 109 115 114 132 141 134 116 129 134 140 147 154
350 347 345 342 334 331 325 321 315 310 310 311 312 315 321 256 24 105 144 143 146 154 98 73 319 158 215 228 280 252 195 121 124 118 134 148 156 153 147 145 136 136 148 153 168
349 344 341 342 334 331 327 320 314 310 308 312 314 322 294 228 252 142 141 146 150 156 142 164 154 212 269 266 296 254 106 93 97 116 137 147 122 74 127 128 133 140 154 165 177
347 343 339 338 335 329 324 320 312 307 307 308 305 321 251 254 128 145 169 158 205 190 156 174 167 204 245 3 33 331 36 107 105 150 113 110 119 108 128 129 136 148 160 173 177
345 343 340 335 333 330 325 319 310 303 304 300 291 287 263 247 122 157 188 188 215 226 232 213 178 160 110 14 348 8 32 343 155 176 141 139 117 135 139 134 141 155 171 185 177
345 342 338 336 332 328 325 316 307 294 292 279 278 269 254 239 248 175 192 228 219 245 260 271 309 91 68 61 4 360 39 354 302 320 132 109 156 142 156 142 151 164 182 186 175
343 340 338 335 332 326 319 313 295 281 246 268 224 225 266 205 216 243 189 223 233 237 238 249 71 86 130 93 10 14 192 276 297 226 163 127 153 150 159 146 161 168 185 184 168
344 340 338 333 329 327 317 286 278 307 209 212 257 293 256 231 211 211 202 235 254 276 253 225 161 86 67 115 197 192 178 230 262 192 176 131 144 161 163 156 164 167 178 172 167
341 338 335 329 326 330 335 262 284 268 246 205 196 223 176 224 193 222 188 209 254 286 262 266 165 174 214 196 226 230 206 192 229 243 87 77 9 307 175 170 170 171 174 178 177
339 335 330 324 320 320 286 256 269 316 264 229 255 255 267 131 199 233 192 202 217 249 258 279 261 192 201 221 217 230 273 245 292 127 100 96 92 272 231 186 175 171 174 176 182
336 332 329 323 318 287 225 233 272 306 298 273 217 240 211 165 235 213 172 207 250 236 258 257 260 264 185 227 234 248 186 182 181 150 2 125 183 233 220 191 179 176 174 175 180
333 330 329 324 302 312 224 238 244 262 306 257 177 240 210 207 255 255 175 198 239 257 272 263 274 184 271 273 271 336 180 344 260 170 203 165 197 215 223 215 191 176 175 179 180
331 328 325 326 314 265 293 288 330 9 280 145 183 200 197 178 263 230 171 196 250 273 290 271 315 321 196 267 319 256 121 280 298 310 355 239 93 329 76 37 328 201 182 185 180
327 323 325 180 215 247 294 301 114 286 242 177 135 211 165 206 247 142 127 180 250 274 296 281 293 287 331 323 283 343 339 316 277 295 317 202 134 291 143 238 301 318 200 187 180
320 313 295 300 223 340 268 296 257 233 147 153 159 167 202 199 242 159 180 223 208 210 262 290 270 258 184 289 317 247 311 326 2 16 237 280 99 201 178 161 165 224 204 178 178
317 309 227 226 270 335 304 213 247 279 283 167 156 170 192 208 216 203 173 215 215 247 287 214 292 209 208 174 217 254 201 160 353 188 243 261 137 221 192 192 197 162 150 140 173
315 167 226 234 224 242 314 216 224 336 4 345 156 153 201 225 206 199 189 203 210 197 205 317 318 120 155 161 161 286 308 246 352 300 24 36 59 64 199 193 104 84 80 10 169
308 280 233 206 168 213 223 247 271 319 331 354 342 179 200 210 200 182 195 212 228 196 189 258 328 181 138 94 221 203 273 2 344 262 63 52 72 166 92 113 104 66 47 33 36
249 257 184 152 155 198 221 239 264 271 35 3 327 329 330 328 220 190 214 231 191 246 157 192 184 297 83 155 222 288 277 280 142 127 178 116 282 130 164 110 98 86 67 54 54
306 278 157 154 169 209 239 250 268 285 134 51 300 309 297 329 327 360 229 56 320 138 120 51 257 301 239 268 199 195 208 175 125 278 252 149 287 167 109 103 100 93 85 66 73
306 269 165 170 208 230 243 246 256 267 356 21 303 312 332 345 353 5 67 14 36 52 60 340 315 324 323 328 6 250 235 224 202 79 269 95 265 80 84 79 77 87 71 65 69
277 286 173 179 252 282 292 285 256 142 46 336 338 355 346 348 325 304 52 104 59 107 154 97 298 172 213 255 325 338 340 246 116 52 287 218 106 85 58 96 85 72 68 62 49
229 310 4 322 269 257 296 286 322 113 151 83 14 278 285 297 307 325 4 12 148 156 75 112 233 281 299 310 324 322 324 335 339 234 171 274 134 135 145 118 101 88 76 67 55
10 358 342 297 300 309 308 339 317 15 30 127 112 341 29 55 35 358 3 19 46 345 239 289 263 331 308 310 304 292 297 315 315 332 350 343 347 133 114 94 90 84 79 70 57
358 332 280 288 311 316 291 345 351 42 65 36 48 2 50 9 346 318 302 299 302 336 339 28 62 27 328 358 340 357 356 346 338 323 85 48 66 86 75 75 94 82 83 83 70